Regional Weather Roundup
Issued by NWS

Home | Current Version | Previous Version | Text Only | Print | Product List | Glossary Off
Versions: 1 2 3 4 5 6 7 8 9 10 11 12 13 14 15 16 17 18 19 20 21 22 23 24 25 26 27 28 29 30 31 32 33 34 35 36 37 38 39 40 41 42 43 44 45 46 47 48 49 50

788
ASUS45 KBOU 190707
RWRCO

WEATHER ROUNDUP FOR COLORADO
NATIONAL WEATHER SERVICE DENVER/BOULDER CO
100 AM MDT SAT AUG 19 2017

NOTE: "FAIR" INDICATES FEW OR NO CLOUDS BELOW 12000 FEET WITH NO
SIGNIFICANT WEATHER AND/OR OBSTRUCTIONS TO VISIBILITY.

COZ001>005-013-030-031-190800-
...NORTHWEST COLORADO...

CITY           SKY/WX    TMP DP  RH WIND       PRES   REMARKS
CRAIG          FAIR      51  38  60 SE5       30.22R
HAYDEN         FAIR      57  33  40 E7        30.25S
MEEKER         FAIR      59  36  42 E8        30.24S
RABBIT EARS PA FAIR      54  28  37 W7        30.53F
STEAMBOAT SPGS FAIR      53  36  50 CALM      30.26F
WALDEN         FAIR      41  32  70 SE6       30.36S
$$

COZ006>008-011-190800-
...WEST CENTRAL VALLEYS...

CITY           SKY/WX    TMP DP  RH WIND       PRES   REMARKS
GRAND JUNCTION FAIR      67  33  28 E8        30.09S
MONTROSE       FAIR      66  39  37 SE13      30.21S
EAGLE          FAIR      56  33  42 CALM      30.29R
RIFLE          FAIR      62  34  35 E7        30.18R
DELTA          FAIR      66  34  31 E7        30.16F
NUCLA          FAIR      64  32  29 SE13      30.23F
$$

COZ017>023-064>068-190800-
...SOUTHWEST COLORADO...

CITY           SKY/WX    TMP DP  RH WIND       PRES   REMARKS
DURANGO        FAIR      58  37  45 CALM      30.26S
CORTEZ         FAIR      54  39  57 E5        30.21S
PAGOSA SPRINGS FAIR      54  34  46 CALM      30.35F
TELLURIDE      FAIR      55  35  47 SE7       30.49S
WOLF CREEK PAS FAIR      50  30  46 W5        30.72S
$$

COZ009-010-012-014-032>034-037-058>063-190800-
...CENTRAL COLORADO...

CITY           SKY/WX    TMP DP  RH WIND       PRES   REMARKS
ASPEN          FAIR      53  36  52 S7        30.36S
BUENA VISTA    FAIR      55  35  47 W9        30.38S
COPPER MTN     FAIR      54  27  35 W7        30.67F
BERTHOUD PASS  FAIR      45  39  81 W21       30.69S
COTTONWOOD PAS FAIR      61  27  27 W6        30.51F
GUNNISON       FAIR      51  36  56 NE6       30.38S
KREMMLING      FAIR      54  43  66 CALM      30.34S
LEADVILLE      FAIR      43  32  65 CALM      30.51R
MONARCH PASS   FAIR      50  28  43 NE6       30.77F
SALIDA         FAIR      59  39  46 W3        30.42S
SUNLIGHT       FAIR      54  21  28 W3        30.60F
WILKERSON PASS FAIR      50  32  50 SW12G17   30.63F
$$

COZ069>075-190800-
...SAN LUIS VALLEY/SANGRE DE CRISTO MOUNTAINS...

CITY           SKY/WX    TMP DP  RH WIND       PRES   REMARKS
ALAMOSA        FAIR      51  41  68 S6        30.33R
DEL NORTE      FAIR      60  36  41 SW12      30.37S
LA VETA PASS   NOT AVBL
SAGUACHE       FAIR      59  36  41 NW12      30.35F
$$

COZ035-036-038>040-190800-
...NORTHERN COLORADO FRONT RANGE...

CITY           SKY/WX    TMP DP  RH WIND       PRES   REMARKS
DENVER INTL AP FAIR      65  49  56 S7        30.14F
DMNS CITY PARK   N/A     67  47  48 SE7       30.13F
AURORA         CLEAR     70  47  43 S21G28    30.15F
FRONT RANGE AP FAIR      68  52  56 S17       30.15F
ERIE MUNI ARPT FAIR      61  46  57 CALM      30.16F
BOULDER MUN AP FAIR      70  41  35 S5        30.12S
CENTENNIAL     FAIR      67  45  45 S14       30.18F
BROOMFIELD     NOT AVBL
FORT COLLINS   FAIR      64  54  69 N6        30.11F
LONGMONT       FAIR      64  48  55 CALM      30.13S
$$

COZ041-046-047-076>085-087-088-190800-
...PIKES PEAK/PALMER DIVIDE AND SOUTHERN FOOTHILLS...

CITY           SKY/WX    TMP DP  RH WIND       PRES   REMARKS
COLO. SPRINGS  FAIR      67  52  58 VRB3      30.26F
A. F. ACADEMY  FAIR      60  46  61 S5        30.27F
SCHRIEVER AFB  FAIR      62  52  70 MISG      30.25F
CHEYENNE MTN   FAIR      64  46  52 NW3       30.25F
ELLICOTT       NOT AVBL
FALCON         FAIR      60  50  70 SW5       30.31F
FORT CARSON    FAIR      62  50  65 N7        30.22F
LIMON          FAIR      52  51  97 CALM      30.20S
MONUMENT HILL  FAIR      59  50  72 S14       30.30F
CANON CITY     CLEAR     70  48  46 CALM      30.18S
WALSENBURG     FAIR      63  43  48 SW9       30.20S
TRINIDAD       FAIR      67  50  54 W7        30.19F
$$

COZ042>045-048>051-090-091-190800-
...NORTHEAST COLORADO...

CITY           SKY/WX    TMP DP  RH WIND       PRES   REMARKS
GREELEY ARPT   NOT AVBL
AKRON          FAIR      66  51  58 S12       30.12F
BURLINGTON     FAIR      62  56  80 S8        30.13S
WRAY           NOT AVBL
YUMA           NOT AVBL
STERLING       FAIR      61  52  72 W5        30.07F
HOLYOKE        FAIR      61  54  77 SW7       30.08S
FORT MORGAN    FAIR      64  49  59 S6        30.11F
$$

COZ086-089-092>099-190800-
...SOUTHEAST COLORADO...

CITY           SKY/WX    TMP DP  RH WIND       PRES   REMARKS
PUEBLO         FAIR      66  53  63 NE7       30.11F
LA JUNTA       FAIR      67  57  70 E8        30.09F
LAMAR          FAIR      64  59  83 E6        30.08S
SPRINGFIELD      N/A     63  63 100 SW6       30.13S
$$




USA.gov is the U.S. government's official web portal to all federal, state and local government web resources and services.